| time (UTC) | temp F | wind direction | speed knots | gust knots | rain 1hr in | rain 24hr in | rain mn in | humidity % | barometer mb |
| 20260507230547 | 61 | 304 | 7.8 | 9.6 | 0.00 | 0.01 | 0.01 | 35 | 1012.6 |
| 20260507230044 | 62 | 311 | 5.2 | 8.7 | 0.00 | 0.01 | 0.01 | 36 | 1012.6 |
| 20260507225538 | 62 | 316 | 3.5 | 3.5 | 0.00 | 0.01 | 0.01 | 38 | 1012.3 |
| 20260507225035 | 62 | 310 | 7.0 | 9.6 | 0.00 | 0.01 | 0.01 | 36 | 1012.4 |
| 20260507224531 | 62 | 324 | 1.7 | 3.5 | 0.00 | 0.01 | 0.01 | 34 | 1012.4 |
| 20260507224028 | 62 | 257 | 5.2 | 9.6 | 0.00 | 0.01 | 0.01 | 39 | 1012.5 |
| 20260507223524 | 62 | 314 | 3.5 | 7.0 | 0.00 | 0.01 | 0.01 | 36 | 1012.2 |
| 20260507223021 | 62 | 313 | 7.8 | 13.9 | 0.00 | 0.01 | 0.01 | 36 | 1012.2 |
| 20260507222518 | 62 | 316 | 5.2 | 7.0 | 0.00 | 0.01 | 0.01 | 38 | 1012.3 |
| 20260507222015 | 60 | 285 | 3.5 | 7.0 | 0.00 | 0.01 | 0.01 | 37 | 1012.2 |
| 20260507221511 | 60 | 314 | 5.2 | 8.7 | 0.00 | 0.01 | 0.01 | 39 | 1012.2 |
| 20260507221008 | 61 | 312 | 5.2 | 7.0 | 0.00 | 0.01 | 0.01 | 39 | 1012.1 |
| 20260507220505 | 63 | 305 | 6.1 | 11.3 | 0.00 | 0.01 | 0.01 | 40 | 1012.1 |
| 20260507220002 | 62 | 330 | 6.1 | 9.6 | 0.00 | 0.01 | 0.01 | 35 | 1012.1 |
| 20260507215458 | 62 | 356 | 0.9 | 8.7 | 0.00 | 0.01 | 0.01 | 37 | 1011.8 |
| 20260507214956 | 64 | 320 | 7.8 | 9.6 | 0.00 | 0.01 | 0.01 | 35 | 1011.7 |
| 20260507214453 | 63 | 283 | 2.6 | 6.1 | 0.00 | 0.01 | 0.01 | 38 | 1011.6 |
| 20260507213949 | 64 | 318 | 3.5 | 7.8 | 0.00 | 0.01 | 0.01 | 37 | 1011.7 |
| 20260507213446 | 63 | 319 | 7.8 | 11.3 | 0.00 | 0.01 | 0.01 | 39 | 1011.8 |
| 20260507212943 | 61 | 317 | 5.2 | 7.0 | 0.00 | 0.01 | 0.01 | 39 | 1011.7 |
| 20260507212438 | 61 | 313 | 3.5 | 6.1 | 0.00 | 0.01 | 0.01 | 43 | 1011.9 |
| 20260507211936 | 63 | 317 | 6.1 | 9.6 | 0.00 | 0.01 | 0.01 | 42 | 1011.6 |
| 20260507211432 | 65 | 302 | 4.3 | 7.8 | 0.00 | 0.01 | 0.01 | 38 | 1011.3 |
| 20260507210929 | 64 | 249 | 0.9 | 7.0 | 0.00 | 0.01 | 0.01 | 34 | 1011.3 |
| 20260507210426 | 62 | 300 | 6.1 | 9.6 | 0.00 | 0.01 | 0.01 | 40 | 1011.6 |
| 20260507205923 | 61 | 326 | 0.9 | 6.1 | 0.00 | 0.01 | 0.01 | 40 | 1011.4 |
| 20260507205420 | 64 | 331 | 7.0 | 7.8 | 0.00 | 0.01 | 0.01 | 40 | 1011.4 |
| 20260507204916 | 62 | 30 | 2.6 | 3.5 | 0.00 | 0.01 | 0.01 | 39 | 1011.2 |
| 20260507204412 | 62 | 250 | 1.7 | 3.5 | 0.00 | 0.01 | 0.01 | 40 | 1011.4 |
| 20260507203910 | 62 | 314 | 7.0 | 9.6 | 0.00 | 0.01 | 0.01 | 40 | 1011.6 |
| 20260507203408 | 62 | 308 | 7.8 | 11.3 | 0.00 | 0.01 | 0.01 | 38 | 1011.7 |
| 20260507202904 | 61 | 250 | 7.0 | 9.6 | 0.00 | 0.01 | 0.01 | 44 | 1011.6 |
| 20260507202400 | 64 | 324 | 1.7 | 2.6 | 0.00 | 0.01 | 0.01 | 38 | 1011.3 |
| 20260507201856 | 64 | 320 | 1.7 | 5.2 | 0.00 | 0.01 | 0.01 | 39 | 1011.4 |
| 20260507201351 | 64 | 314 | 1.7 | 6.1 | 0.00 | 0.01 | 0.01 | 44 | 1011.4 |
| 20260507200848 | 64 | 308 | 5.2 | 8.7 | 0.00 | 0.01 | 0.01 | 42 | 1011.5 |
| 20260507200344 | 64 | 328 | 2.6 | 5.2 | 0.00 | 0.01 | 0.01 | 40 | 1011.8 |
| 20260507195840 | 64 | 297 | 7.8 | 12.2 | 0.00 | 0.01 | 0.01 | 43 | 1011.6 |
| 20260507195338 | 63 | 255 | 6.1 | 7.0 | 0.00 | 0.01 | 0.01 | 37 | 1011.7 |
| 20260507194835 | 64 | 278 | 4.3 | 8.7 | 0.00 | 0.01 | 0.01 | 45 | 1011.9 |
| 20260507194331 | 64 | 314 | 3.5 | 6.1 | 0.00 | 0.01 | 0.01 | 40 | 1011.7 |
| 20260507193828 | 63 | 323 | 2.6 | 5.2 | 0.00 | 0.01 | 0.01 | 39 | 1012.2 |
| 20260507193325 | 62 | 316 | 4.3 | 8.7 | 0.00 | 0.01 | 0.01 | 42 | 1012.2 |
| 20260507192820 | 60 | 309 | 6.1 | 9.6 | 0.00 | 0.01 | 0.01 | 43 | 1012.1 |
| 20260507192318 | 60 | 314 | 4.3 | 9.6 | 0.00 | 0.01 | 0.01 | 44 | 1012.4 |
| 20260507191814 | 60 | 337 | 5.2 | 8.7 | 0.00 | 0.01 | 0.01 | 47 | 1012.3 |
| 20260507191310 | 62 | 308 | 6.1 | 12.2 | 0.00 | 0.01 | 0.01 | 46 | 1012.1 |
| 20260507190808 | 63 | 330 | 5.2 | 8.7 | 0.00 | 0.01 | 0.01 | 40 | 1012.3 |
| 20260507190306 | 64 | 311 | 4.3 | 6.1 | 0.00 | 0.01 | 0.01 | 39 | 1012.1 |
| 20260507185804 | 63 | 314 | 2.6 | 6.1 | 0.00 | 0.01 | 0.01 | 46 | 1012.0 |
| 20260507185300 | 63 | 310 | 3.5 | 7.0 | 0.00 | 0.01 | 0.01 | 41 | 1012.1 |
| 20260507184758 | 62 | 309 | 4.3 | 7.0 | 0.00 | 0.01 | 0.01 | 49 | 1012.3 |
| 20260507184256 | 63 | 337 | 5.2 | 7.0 | 0.00 | 0.01 | 0.01 | 41 | 1012.3 |
| 20260507183752 | 63 | 329 | 5.2 | 7.0 | 0.00 | 0.01 | 0.01 | 47 | 1012.3 |
| 20260507183250 | 62 | 320 | 6.1 | 13.0 | 0.00 | 0.01 | 0.01 | 41 | 1012.3 |
| 20260507182747 | 63 | 315 | 3.5 | 7.0 | 0.00 | 0.01 | 0.01 | 45 | 1012.2 |
| 20260507182242 | 62 | 312 | 5.2 | 11.3 | 0.00 | 0.01 | 0.01 | 46 | 1012.4 |
| 20260507181739 | 60 | 306 | 5.2 | 7.0 | 0.00 | 0.01 | 0.01 | 49 | 1012.4 |
| 20260507181235 | 61 | 311 | 7.0 | 9.6 | 0.00 | 0.01 | 0.01 | 47 | 1012.3 |
| 20260507180732 | 62 | 286 | 6.1 | 8.7 | 0.00 | 0.01 | 0.01 | 43 | 1012.2 |
| 20260507180229 | 61 | 302 | 7.0 | 13.9 | 0.00 | 0.01 | 0.01 | 44 | 1012.5 |
| 20260507175724 | 61 | 255 | 1.7 | 3.5 | 0.00 | 0.01 | 0.01 | 45 | 1012.7 |
| 20260507175221 | 60 | 307 | 4.3 | 11.3 | 0.00 | 0.01 | 0.01 | 47 | 1012.7 |
| 20260507174719 | 61 | 295 | 3.5 | 7.8 | 0.00 | 0.01 | 0.01 | 48 | 1012.7 |
| 20260507174217 | 59 | 313 | 0.9 | 9.6 | 0.00 | 0.01 | 0.01 | 53 | 1012.6 |
| 20260507173714 | 61 | 310 | 4.3 | 7.0 | 0.00 | 0.01 | 0.01 | 45 | 1012.6 |
| 20260507173211 | 62 | 307 | 5.2 | 6.1 | 0.00 | 0.01 | 0.01 | 47 | 1012.8 |
| 20260507172708 | 62 | 298 | 2.6 | 6.1 | 0.00 | 0.01 | 0.01 | 44 | 1012.6 |
| 20260507172204 | 61 | 266 | 0.9 | 3.5 | 0.00 | 0.01 | 0.01 | 58 | 1012.7 |
| 20260507171704 | 61 | 313 | 7.0 | 9.6 | 0.00 | 0.01 | 0.01 | 55 | 1012.7 |
| 20260507171202 | 60 | 310 | 3.5 | 9.6 | 0.00 | 0.01 | 0.01 | 53 | 1013.0 |
| 20260507170659 | 58 | 309 | 3.5 | 7.0 | 0.00 | 0.01 | 0.01 | 53 | 1013.0 |
| 20260507170156 | 58 | 315 | 5.2 | 7.8 | 0.00 | 0.01 | 0.01 | 49 | 1013.0 |
| 20260507165651 | 60 | 305 | 1.7 | 3.5 | 0.00 | 0.01 | 0.01 | 50 | 1013.1 |
| 20260507165148 | 60 | 265 | 5.2 | 7.0 | 0.00 | 0.01 | 0.01 | 46 | 1013.0 |
| 20260507164644 | 60 | 261 | 4.3 | 5.2 | 0.00 | 0.01 | 0.01 | 45 | 1013.2 |
| 20260507164141 | 59 | 326 | 2.6 | 7.0 | 0.00 | 0.01 | 0.01 | 54 | 1013.4 |
| 20260507163633 | 59 | 326 | 2.6 | 7.0 | 0.00 | 0.01 | 0.01 | 54 | 1013.4 |
| 20260507163131 | 58 | 304 | 2.6 | 3.5 | 0.00 | 0.01 | 0.01 | 51 | 1013.4 |
| 20260507162626 | 58 | 10 | 1.7 | 3.5 | 0.00 | 0.01 | 0.01 | 56 | 1013.3 |
| 20260507162122 | 58 | 326 | 0.9 | 3.5 | 0.00 | 0.01 | 0.01 | 52 | 1013.3 |
| 20260507161618 | 59 | 306 | 0.9 | 5.2 | 0.00 | 0.01 | 0.01 | 53 | 1013.2 |
| 20260507161115 | 58 | 18 | 0.0 | 2.6 | 0.00 | 0.01 | 0.01 | 50 | 1013.4 |
| 20260507160611 | 58 | 5 | 1.7 | 5.2 | 0.00 | 0.01 | 0.01 | 56 | 1013.5 |
| 20260507160108 | 58 | 320 | 3.5 | 3.5 | 0.00 | 0.01 | 0.01 | 49 | 1013.5 |
| 20260507155603 | 57 | 264 | 5.2 | 9.6 | 0.00 | 0.01 | 0.01 | 52 | 1013.5 |
| 20260507155100 | 58 | 259 | 1.7 | 6.1 | 0.00 | 0.01 | 0.01 | 52 | 1013.7 |
| 20260507154557 | 59 | 243 | 1.7 | 6.1 | 0.00 | 0.01 | 0.01 | 49 | 1013.6 |
| 20260507154054 | 58 | 309 | 3.5 | 8.7 | 0.00 | 0.01 | 0.01 | 51 | 1013.8 |
| 20260507153551 | 57 | 311 | 1.7 | 5.2 | 0.00 | 0.01 | 0.01 | 56 | 1013.6 |
| 20260507153047 | 57 | 302 | 1.7 | 7.0 | 0.00 | 0.01 | 0.01 | 55 | 1013.9 |
| 20260507152543 | 57 | 7 | 2.6 | 5.2 | 0.00 | 0.01 | 0.01 | 55 | 1013.9 |
| 20260507152040 | 58 | 312 | 5.2 | 7.0 | 0.00 | 0.01 | 0.01 | 55 | 1013.7 |
| 20260507151536 | 58 | 318 | 0.0 | 3.5 | 0.00 | 0.01 | 0.01 | 49 | 1013.8 |
| 20260507151033 | 57 | 284 | 0.0 | 1.7 | 0.00 | 0.01 | 0.01 | 52 | 1014.0 |
| 20260507150530 | 56 | 231 | 0.9 | 3.5 | 0.00 | 0.01 | 0.01 | 50 | 1013.7 |
| 20260507150027 | 56 | 315 | 0.9 | 5.2 | 0.00 | 0.01 | 0.01 | 58 | 1013.8 |
| 20260507145521 | 58 | 301 | 0.9 | 0.9 | 0.00 | 0.01 | 0.01 | 53 | 1013.8 |
| 20260507145020 | 56 | 175 | 0.9 | 1.7 | 0.00 | 0.01 | 0.01 | 55 | 1014.0 |
| 20260507144516 | 55 | 247 | 2.6 | 2.6 | 0.00 | 0.01 | 0.01 | 57 | 1013.9 |
| 20260507144014 | 56 | 314 | 4.3 | 7.0 | 0.00 | 0.01 | 0.01 | 59 | 1014.1 |
| 20260507143511 | 57 | 331 | 0.0 | 2.6 | 0.00 | 0.01 | 0.01 | 57 | 1014.1 |
| 20260507143008 | 56 | 253 | 2.6 | 2.6 | 0.00 | 0.01 | 0.01 | 57 | 1014.1 |
| 20260507142503 | 56 | 241 | 3.5 | 3.5 | 0.00 | 0.01 | 0.01 | 56 | 1014.2 |
| 20260507142000 | 56 | 277 | 1.7 | 2.6 | 0.00 | 0.01 | 0.01 | 60 | 1014.5 |
| 20260507141456 | 56 | 301 | 0.9 | 1.7 | 0.00 | 0.01 | 0.01 | 61 | 1014.4 |
| 20260507140953 | 55 | 13 | 1.7 | 2.6 | 0.00 | 0.01 | 0.01 | 61 | 1014.6 |
| 20260507140450 | 55 | 309 | 1.7 | 3.5 | 0.00 | 0.01 | 0.01 | 66 | 1014.5 |
| 20260507135947 | 55 | 260 | 1.7 | 3.5 | 0.00 | 0.01 | 0.01 | 61 | 1014.6 |
| 20260507135444 | 55 | 312 | 2.6 | 3.5 | 0.00 | 0.01 | 0.01 | 65 | 1014.7 |
| 20260507134941 | 55 | 314 | 1.7 | 3.5 | 0.00 | 0.01 | 0.01 | 67 | 1014.7 |
| 20260507134438 | 55 | 26 | 2.6 | 3.5 | 0.00 | 0.01 | 0.01 | 65 | 1014.6 |
| 20260507133934 | 55 | 22 | 1.7 | 1.7 | 0.00 | 0.01 | 0.01 | 63 | 1014.9 |
| 20260507133430 | 54 | 22 | 0.0 | 1.7 | 0.00 | 0.01 | 0.01 | 64 | 1014.8 |
| 20260507132929 | 54 | 279 | 1.7 | 1.7 | 0.00 | 0.01 | 0.01 | 68 | 1014.8 |
| 20260507132424 | 53 | 270 | 0.0 | 1.7 | 0.00 | 0.01 | 0.01 | 72 | 1014.8 |
| 20260507131921 | 54 | 227 | 0.0 | 0.0 | 0.00 | 0.01 | 0.01 | 71 | 1014.9 |
| 20260507131418 | 53 | 199 | 0.0 | 1.7 | 0.00 | 0.01 | 0.01 | 74 | 1014.9 |
| 20260507130915 | 53 | 198 | 0.0 | 0.9 | 0.00 | 0.01 | 0.01 | 72 | 1014.9 |
| 20260507130412 | 53 | 198 | 0.9 | 1.7 | 0.00 | 0.01 | 0.01 | 79 | 1014.8 |
| 20260507125911 | 54 | 280 | 0.9 | 1.7 | 0.00 | 0.01 | 0.01 | 79 | 1014.8 |
| 20260507125409 | 53 | 281 | 0.0 | 0.9 | 0.00 | 0.01 | 0.01 | 81 | 1014.8 |
| 20260507124906 | 53 | 281 | 0.0 | 0.0 | 0.00 | 0.01 | 0.01 | 88 | 1014.9 |
| 20260507124401 | 51 | 280 | 0.0 | 0.0 | 0.00 | 0.01 | 0.01 | 90 | 1015.1 |
| 20260507123900 | 50 | 280 | 0.0 | 0.0 | 0.00 | 0.01 | 0.01 | 90 | 1014.9 |
| 20260507123357 | 50 | 280 | 0.0 | 0.0 | 0.00 | 0.01 | 0.01 | 91 | 1014.9 |
| 20260507122853 | 49 | 280 | 0.0 | 0.0 | 0.00 | 0.01 | 0.01 | 93 | 1015.2 |
| 20260507122349 | 49 | 280 | 0.9 | 1.7 | 0.00 | 0.01 | 0.01 | 95 | 1015.1 |
| 20260507121845 | 48 | 281 | 0.0 | 0.0 | 0.00 | 0.01 | 0.01 | 97 | 1015.1 |
| 20260507121341 | 47 | 281 | 0.0 | 0.0 | 0.00 | 0.01 | 0.01 | 97 | 1014.9 |
| 20260507120837 | 48 | 281 | 0.0 | 0.0 | 0.00 | 0.01 | 0.01 | 99 | 1014.9 |
| 20260507120334 | 47 | 281 | 0.0 | 0.0 | 0.00 | 0.01 | 0.01 | 99 | 1015.2 |
| 20260507115830 | 47 | 281 | 0.0 | 0.0 | 0.00 | 0.01 | 0.01 | 99 | 1014.9 |
| 20260507115326 | 47 | 281 | 0.0 | 0.9 | 0.00 | 0.01 | 0.01 | 99 | 1015.1 |
| 20260507114822 | 47 | 281 | 0.0 | 0.0 | 0.00 | 0.01 | 0.01 | 99 | 1015.1 |
| 20260507114319 | 46 | 281 | 0.0 | 0.0 | 0.00 | 0.01 | 0.01 | 99 | 1014.8 |
| 20260507113817 | 46 | 281 | 0.0 | 0.0 | 0.00 | 0.01 | 0.01 | 99 | 1014.9 |
| 20260507113313 | 46 | 281 | 0.9 | 0.9 | 0.00 | 0.01 | 0.01 | 99 | 1014.7 |
| 20260507112811 | 46 | 281 | 0.9 | 0.9 | 0.00 | 0.01 | 0.01 | 99 | 1014.6 |
| 20260507112308 | 46 | 281 | 0.0 | 0.0 | 0.00 | 0.01 | 0.01 | 99 | 1014.5 |
| 20260507111806 | 46 | 281 | 0.0 | 0.0 | 0.00 | 0.01 | 0.01 | 99 | 1014.5 |
| 20260507111302 | 46 | 281 | 0.0 | 0.0 | 0.00 | 0.01 | 0.01 | 99 | 1014.5 |
| 20260507110758 | 46 | 281 | 1.7 | 1.7 | 0.00 | 0.01 | 0.01 | 99 | 1014.5 |
| 20260507110255 | 46 | 279 | 0.0 | 0.0 | 0.00 | 0.01 | 0.01 | 99 | 1014.4 |
| 20260507105752 | 46 | 279 | 0.0 | 0.9 | 0.00 | 0.01 | 0.01 | 99 | 1014.3 |
| 20260507105247 | 46 | 279 | 0.0 | 0.9 | 0.00 | 0.01 | 0.01 | 99 | 1014.3 |
| 20260507104745 | 46 | 279 | 0.0 | 0.0 | 0.00 | 0.01 | 0.01 | 99 | 1014.1 |
| 20260507104242 | 46 | 279 | 0.0 | 0.0 | 0.00 | 0.01 | 0.01 | 99 | 1014.2 |
| 20260507103738 | 46 | 272 | 0.0 | 0.9 | 0.00 | 0.01 | 0.01 | 99 | 1014.0 |
| 20260507103234 | 46 | 272 | 0.0 | 0.0 | 0.00 | 0.01 | 0.01 | 99 | 1014.2 |
| 20260507102730 | 46 | 280 | 0.0 | 0.0 | 0.00 | 0.01 | 0.01 | 99 | 1014.3 |
| 20260507102227 | 46 | 280 | 0.0 | 0.0 | 0.00 | 0.01 | 0.01 | 99 | 1014.1 |
| 20260507101723 | 46 | 280 | 0.0 | 0.0 | 0.00 | 0.01 | 0.01 | 99 | 1014.3 |
| 20260507101219 | 46 | 280 | 0.0 | 0.0 | 0.00 | 0.01 | 0.01 | 99 | 1014.3 |
| 20260507100716 | 46 | 280 | 0.0 | 0.0 | 0.00 | 0.01 | 0.01 | 99 | 1014.1 |
| 20260507100214 | 46 | 280 | 0.0 | 0.0 | 0.00 | 0.01 | 0.01 | 99 | 1013.9 |
| 20260507095712 | 46 | 279 | 0.0 | 0.0 | 0.00 | 0.01 | 0.01 | 99 | 1014.1 |
| 20260507095208 | 45 | 279 | 0.0 | 0.0 | 0.00 | 0.01 | 0.01 | 99 | 1014.2 |
| 20260507094705 | 46 | 279 | 0.0 | 0.0 | 0.00 | 0.01 | 0.01 | 99 | 1014.0 |
| 20260507094202 | 45 | 279 | 0.0 | 0.0 | 0.00 | 0.01 | 0.01 | 99 | 1014.0 |
| 20260507093659 | 45 | 279 | 0.0 | 0.0 | 0.00 | 0.01 | 0.01 | 99 | 1013.6 |
| 20260507093158 | 46 | 279 | 0.0 | 0.0 | 0.00 | 0.01 | 0.01 | 99 | 1013.9 |
| 20260507092654 | 46 | 279 | 0.0 | 0.0 | 0.00 | 0.01 | 0.01 | 99 | 1014.1 |
| 20260507092151 | 46 | 279 | 0.0 | 0.0 | 0.00 | 0.01 | 0.01 | 99 | 1014.4 |
| 20260507091647 | 45 | 279 | 0.0 | 0.0 | 0.00 | 0.01 | 0.01 | 99 | 1013.9 |
| 20260507091144 | 45 | 279 | 0.0 | 0.0 | 0.00 | 0.01 | 0.01 | 99 | 1014.0 |
| 20260507090639 | 46 | 280 | 0.9 | 0.9 | 0.00 | 0.01 | 0.01 | 98 | 1013.9 |
| 20260507090137 | 46 | 295 | 0.0 | 0.0 | 0.00 | 0.01 | 0.01 | 98 | 1013.7 |
| 20260507085634 | 47 | 295 | 0.0 | 0.0 | 0.00 | 0.01 | 0.01 | 98 | 1013.6 |
| 20260507085130 | 47 | 296 | 0.0 | 0.0 | 0.00 | 0.01 | 0.01 | 98 | 1014.0 |
| 20260507084627 | 47 | 296 | 0.0 | 0.0 | 0.00 | 0.01 | 0.01 | 98 | 1014.0 |
| 20260507084124 | 48 | 296 | 0.0 | 0.0 | 0.00 | 0.01 | 0.01 | 98 | 1013.8 |
| 20260507083620 | 48 | 296 | 0.0 | 0.0 | 0.00 | 0.01 | 0.01 | 98 | 1013.8 |
| 20260507083118 | 48 | 296 | 0.0 | 0.0 | 0.00 | 0.01 | 0.01 | 98 | 1013.7 |
| 20260507082613 | 48 | 295 | 0.0 | 0.0 | 0.00 | 0.01 | 0.01 | 98 | 1013.8 |
| 20260507082109 | 48 | 295 | 0.0 | 0.0 | 0.00 | 0.01 | 0.01 | 98 | 1014.0 |
| 20260507081606 | 48 | 295 | 0.0 | 0.0 | 0.00 | 0.01 | 0.01 | 98 | 1013.8 |
| 20260507081103 | 49 | 295 | 0.0 | 0.0 | 0.00 | 0.01 | 0.01 | 98 | 1014.1 |
| 20260507080559 | 49 | 295 | 0.0 | 0.0 | 0.00 | 0.01 | 0.01 | 98 | 1013.9 |
| 20260507080056 | 49 | 295 | 0.0 | 0.0 | 0.00 | 0.01 | 0.01 | 98 | 1013.8 |
| 20260507075551 | 49 | 296 | 0.0 | 0.0 | 0.00 | 0.01 | 0.01 | 98 | 1014.0 |
| 20260507075047 | 49 | 295 | 0.0 | 0.0 | 0.00 | 0.01 | 0.01 | 98 | 1013.9 |
| 20260507074544 | 49 | 295 | 0.0 | 0.0 | 0.00 | 0.01 | 0.01 | 98 | 1013.7 |
| 20260507074043 | 49 | 295 | 0.0 | 0.0 | 0.00 | 0.01 | 0.01 | 98 | 1013.8 |
| 20260507073538 | 49 | 295 | 0.0 | 0.0 | 0.00 | 0.01 | 0.01 | 98 | 1014.1 |
| 20260507073035 | 49 | 296 | 0.0 | 0.9 | 0.00 | 0.01 | 0.01 | 99 | 1014.1 |
| 20260507072533 | 50 | 299 | 1.7 | 1.7 | 0.00 | 0.01 | 0.01 | 99 | 1014.0 |
| 20260507072030 | 50 | 301 | 0.9 | 1.7 | 0.00 | 0.01 | 0.01 | 99 | 1013.9 |
| 20260507071527 | 50 | 301 | 0.0 | 0.0 | 0.00 | 0.01 | 0.01 | 99 | 1014.0 |
| 20260507071024 | 50 | 301 | 0.0 | 0.0 | 0.00 | 0.01 | 0.01 | 99 | 1013.8 |
| 20260507070521 | 50 | 301 | 0.0 | 0.0 | 0.00 | 0.01 | 0.01 | 99 | 1013.8 |
| 20260507070018 | 50 | 301 | 0.0 | 0.0 | 0.00 | 0.01 | 0.01 | 99 | 1013.9 |
| 20260507065514 | 50 | 301 | 0.0 | 0.0 | 0.00 | 0.01 | 0.01 | 99 | 1013.8 |
| 20260507065011 | 50 | 301 | 0.0 | 0.0 | 0.00 | 0.01 | 0.01 | 99 | 1014.0 |
| 20260507064509 | 50 | 301 | 0.0 | 0.0 | 0.00 | 0.01 | 0.01 | 99 | 1014.0 |
| 20260507064008 | 50 | 300 | 0.0 | 0.9 | 0.00 | 0.01 | 0.01 | 99 | 1013.9 |
| 20260507063504 | 50 | 300 | 0.0 | 0.0 | 0.00 | 0.01 | 0.01 | 98 | 1013.8 |
| 20260507063001 | 50 | 300 | 0.0 | 0.0 | 0.00 | 0.01 | 0.01 | 99 | 1013.8 |
| 20260507062458 | 50 | 300 | 0.0 | 0.0 | 0.00 | 0.01 | 0.01 | 98 | 1014.0 |
| 20260507061955 | 50 | 300 | 0.0 | 0.0 | 0.00 | 0.01 | 0.01 | 98 | 1014.1 |
| 20260507061453 | 50 | 300 | 0.0 | 0.0 | 0.00 | 0.01 | 0.01 | 98 | 1014.0 |
| 20260507060951 | 50 | 300 | 0.0 | 0.0 | 0.00 | 0.01 | 0.01 | 98 | 1013.9 |
| 20260507060448 | 50 | 300 | 0.0 | 0.0 | 0.00 | 0.01 | 0.01 | 98 | 1014.1 |
| 20260507055945 | 50 | 300 | 0.0 | 0.0 | 0.00 | 0.01 | 0.01 | 98 | 1014.1 |
| 20260507055440 | 50 | 300 | 0.0 | 0.0 | 0.00 | 0.01 | 0.01 | 98 | 1014.2 |
| 20260507054937 | 50 | 300 | 0.0 | 0.0 | 0.00 | 0.01 | 0.01 | 98 | 1014.1 |
| 20260507054433 | 50 | 300 | 0.0 | 0.0 | 0.00 | 0.01 | 0.01 | 98 | 1014.2 |
| 20260507053931 | 50 | 300 | 0.0 | 0.0 | 0.00 | 0.01 | 0.01 | 98 | 1014.2 |
| 20260507053428 | 50 | 300 | 0.0 | 0.0 | 0.00 | 0.01 | 0.01 | 98 | 1014.3 |
| 20260507052926 | 50 | 300 | 0.0 | 0.0 | 0.00 | 0.01 | 0.01 | 98 | 1014.3 |
| 20260507052423 | 50 | 300 | 0.0 | 0.0 | 0.00 | 0.01 | 0.01 | 98 | 1014.2 |
| 20260507051920 | 50 | 300 | 0.0 | 0.0 | 0.00 | 0.01 | 0.01 | 98 | 1014.1 |
| 20260507051418 | 51 | 300 | 0.0 | 0.0 | 0.00 | 0.01 | 0.01 | 97 | 1014.3 |
| 20260507050915 | 51 | 301 | 0.0 | 0.0 | 0.00 | 0.01 | 0.01 | 97 | 1014.2 |
| 20260507050411 | 51 | 301 | 0.0 | 0.9 | 0.00 | 0.01 | 0.01 | 97 | 1014.2 |
| 20260507045908 | 51 | 300 | 0.0 | 0.0 | 0.00 | 0.01 | 0.01 | 97 | 1014.7 |
| 20260507045405 | 51 | 300 | 0.0 | 0.0 | 0.00 | 0.01 | 0.01 | 97 | 1014.5 |
| 20260507044902 | 51 | 300 | 0.0 | 0.0 | 0.00 | 0.01 | 0.01 | 96 | 1014.5 |
| 20260507044358 | 51 | 300 | 0.0 | 0.0 | 0.00 | 0.01 | 0.01 | 96 | 1014.5 |
| 20260507043855 | 51 | 300 | 0.0 | 0.0 | 0.00 | 0.01 | 0.01 | 96 | 1014.3 |
| 20260507043351 | 51 | 301 | 0.0 | 0.0 | 0.00 | 0.01 | 0.01 | 96 | 1014.3 |
| 20260507042847 | 51 | 301 | 0.0 | 0.0 | 0.00 | 0.01 | 0.01 | 96 | 1014.3 |
| 20260507042343 | 51 | 304 | 0.9 | 1.7 | 0.07 | 0.01 | 0.01 | 96 | 1014.3 |
| 20260507041840 | 51 | 311 | 2.6 | 2.6 | 0.07 | 0.01 | 0.01 | 96 | 1014.3 |
| 20260507041337 | 52 | 320 | 4.3 | 5.2 | 0.00 | 0.00 | 0.00 | 96 | 1014.2 |
| 20260507040834 | 52 | 310 | 2.6 | 5.2 | 0.00 | 0.00 | 0.00 | 96 | 1014.1 |
| 20260507040330 | 52 | 198 | 0.0 | 0.9 | 0.00 | 0.00 | 0.00 | 94 | 1013.8 |
| 20260507035826 | 53 | 197 | 0.9 | 0.9 | 0.00 | 0.67 | 0.67 | 93 | 1013.8 |
| 20260507035321 | 53 | 290 | 0.9 | 3.5 | 0.00 | 0.67 | 0.67 | 91 | 1014.0 |
| 20260507034820 | 53 | 254 | 1.7 | 2.6 | 0.05 | 0.67 | 0.67 | 91 | 1014.1 |
| 20260507034316 | 53 | 226 | 0.0 | 0.9 | 0.05 | 0.67 | 0.67 | 94 | 1013.9 |
| 20260507033814 | 52 | 247 | 0.9 | 1.7 | 0.00 | 0.66 | 0.66 | 95 | 1013.9 |
| 20260507033312 | 54 | 322 | 0.0 | 2.6 | 0.00 | 0.66 | 0.66 | 98 | 1013.8 |
| 20260507032808 | 54 | 265 | 0.0 | 0.0 | 0.00 | 0.66 | 0.66 | 98 | 1013.7 |
| 20260507032306 | 54 | 265 | 0.0 | 0.0 | 0.00 | 0.66 | 0.66 | 98 | 1013.7 |
| 20260507031801 | 54 | 265 | 0.0 | 0.0 | 0.00 | 0.66 | 0.66 | 98 | 1013.8 |
| 20260507031258 | 54 | 265 | 0.0 | 0.0 | 0.00 | 0.66 | 0.66 | 98 | 1013.9 |
| 20260507030755 | 54 | 265 | 0.0 | 0.0 | 0.00 | 0.66 | 0.66 | 98 | 1013.7 |
| 20260507030252 | 54 | 265 | 0.0 | 0.0 | 0.00 | 0.66 | 0.66 | 98 | 1013.7 |
| 20260507025749 | 54 | 265 | 0.0 | 0.0 | 0.00 | 0.66 | 0.66 | 98 | 1013.8 |
| 20260507025246 | 54 | 265 | 0.0 | 0.0 | 0.00 | 0.66 | 0.66 | 98 | 1014.0 |
| 20260507024745 | 54 | 265 | 0.0 | 0.0 | 0.00 | 0.66 | 0.66 | 97 | 1014.1 |
| 20260507024241 | 54 | 265 | 0.0 | 0.0 | 0.00 | 0.66 | 0.66 | 97 | 1014.0 |
| 20260507023737 | 54 | 265 | 0.0 | 0.0 | 0.00 | 0.66 | 0.66 | 98 | 1014.3 |
| 20260507023234 | 54 | 265 | 0.0 | 0.0 | 0.00 | 0.66 | 0.66 | 98 | 1014.0 |
| 20260507022731 | 54 | 265 | 0.0 | 0.0 | 0.00 | 0.66 | 0.66 | 98 | 1014.0 |
| 20260507022227 | 54 | 265 | 0.0 | 0.0 | 0.00 | 0.66 | 0.66 | 98 | 1013.7 |
| 20260507021724 | 54 | 265 | 0.0 | 0.0 | 0.00 | 0.66 | 0.66 | 98 | 1013.7 |
| 20260507021219 | 54 | 249 | 0.0 | 0.0 | 0.00 | 0.66 | 0.66 | 98 | 1013.6 |
| 20260507020718 | 54 | 249 | 0.0 | 0.0 | 0.00 | 0.66 | 0.66 | 98 | 1013.1 |
| 20260507020213 | 54 | 249 | 0.0 | 0.0 | 0.00 | 0.66 | 0.66 | 98 | 1013.1 |
| 20260507015712 | 54 | 249 | 0.0 | 0.0 | 0.00 | 0.66 | 0.66 | 98 | 1013.4 |
| 20260507015209 | 54 | 249 | 0.0 | 0.0 | 0.00 | 0.66 | 0.66 | 98 | 1013.6 |
| 20260507014705 | 54 | 249 | 0.0 | 0.0 | 0.00 | 0.66 | 0.66 | 98 | 1013.7 |
| 20260507014201 | 55 | 249 | 0.0 | 0.0 | 0.00 | 0.66 | 0.66 | 98 | 1013.2 |
| 20260507013658 | 55 | 249 | 0.0 | 0.0 | 0.00 | 0.66 | 0.66 | 97 | 1013.5 |
| 20260507013156 | 55 | 249 | 0.0 | 0.0 | 0.00 | 0.66 | 0.66 | 97 | 1013.7 |
| 20260507012653 | 55 | 248 | 0.0 | 0.0 | 0.00 | 0.66 | 0.66 | 97 | 1013.2 |
| 20260507012148 | 55 | 248 | 0.0 | 0.0 | 0.00 | 0.66 | 0.66 | 97 | 1012.8 |
| 20260507011647 | 55 | 249 | 0.0 | 0.0 | 0.00 | 0.66 | 0.66 | 97 | 1013.1 |
| 20260507011142 | 55 | 249 | 0.0 | 0.0 | 0.00 | 0.66 | 0.66 | 97 | 1013.0 |
| 20260507010637 | 55 | 249 | 0.0 | 0.0 | 0.00 | 0.66 | 0.66 | 96 | 1012.6 |
| 20260507010133 | 55 | 249 | 0.0 | 0.0 | 0.00 | 0.66 | 0.66 | 96 | 1012.8 |
| 20260507005631 | 55 | 249 | 0.0 | 0.0 | 0.00 | 0.66 | 0.66 | 96 | 1013.1 |
| 20260507005127 | 55 | 249 | 0.0 | 0.0 | 0.00 | 0.66 | 0.66 | 96 | 1013.2 |
| 20260507004624 | 55 | 248 | 0.0 | 0.0 | 0.00 | 0.66 | 0.66 | 96 | 1013.1 |
| 20260507004122 | 55 | 248 | 0.0 | 0.0 | 0.00 | 0.66 | 0.66 | 95 | 1012.8 |
| 20260507003618 | 55 | 248 | 0.0 | 0.0 | 0.00 | 0.66 | 0.66 | 96 | 1012.8 |
| 20260507003113 | 55 | 248 | 0.0 | 0.0 | 0.00 | 0.66 | 0.66 | 96 | 1012.9 |
| 20260507002609 | 55 | 248 | 0.0 | 0.0 | 0.00 | 0.66 | 0.66 | 96 | 1012.7 |
| 20260507002105 | 55 | 248 | 0.0 | 0.0 | 0.00 | 0.66 | 0.66 | 96 | 1012.8 |
| 20260507001602 | 55 | 174 | 0.0 | 0.0 | 0.00 | 0.66 | 0.66 | 96 | 1012.4 |
| 20260507001100 | 55 | 174 | 0.0 | 0.0 | 0.00 | 0.66 | 0.66 | 96 | 1012.6 |
| 20260507000556 | 55 | 174 | 0.0 | 0.0 | 0.00 | 0.66 | 0.66 | 96 | 1012.6 |
| 20260507000051 | 55 | 174 | 0.0 | 0.0 | 0.00 | 0.66 | 0.66 | 96 | 1012.6 |
| 20260506235549 | 55 | 174 | 0.0 | 0.0 | 0.00 | 0.66 | 0.66 | 96 | 1012.4 |
| 20260506235044 | 55 | 174 | 0.0 | 0.0 | 0.00 | 0.66 | 0.66 | 96 | 1012.2 |
| 20260506234542 | 56 | 174 | 0.0 | 0.0 | 0.00 | 0.66 | 0.66 | 96 | 1012.3 |
| 20260506234039 | 56 | 175 | 0.0 | 0.0 | 0.00 | 0.66 | 0.66 | 94 | 1012.6 |
| 20260506233536 | 56 | 175 | 0.0 | 0.0 | 0.00 | 0.66 | 0.66 | 93 | 1013.0 |
| 20260506233033 | 56 | 169 | 0.0 | 0.0 | 0.00 | 0.66 | 0.66 | 93 | 1013.1 |
| 20260506232529 | 56 | 168 | 0.0 | 0.0 | 0.00 | 0.66 | 0.66 | 93 | 1012.6 |
| 20260506232024 | 56 | 168 | 0.0 | 0.0 | 0.00 | 0.66 | 0.66 | 94 | 1012.5 |
| 20260506231522 | 56 | 169 | 0.0 | 0.0 | 0.00 | 0.66 | 0.66 | 93 | 1012.9 |
| 20260506231020 | 56 | 168 | 0.0 | 0.0 | 0.00 | 0.66 | 0.66 | 93 | 1012.7 |